Regional Weather Roundup
Issued by NWS

Home | Current Version | Previous Version | Text Only | Print | Product List | Glossary On
Versions: 1 2 3 4 5 6 7 8 9 10 11 12 13 14 15 16 17 18 19 20 21 22 23 24 25 26 27 28 29 30 31 32 33 34 35 36 37 38 39 40 41 42 43 44 45 46 47 48 49 50
000
ASUS44 KFWD 180415
RWRTX
NORTH TEXAS HOURLY WEATHER ROUNDUP
NATIONAL WEATHER SERVICE FORT WORTH TX
1100 PM CDT FRI APR 17 2015

NOTE: "FAIR" INDICATES FEW OR NO CLOUDS BELOW 12,000 FEET WITH NO
SIGNIFICANT WEATHER AND/OR OBSTRUCTIONS TO VISIBILITY.

TXZ118-119-180500-
DALLAS/FORT WORTH METROPLEX

CITY           SKY/WX    TMP DP  RH WIND       PRES   REMARKS
DFW AIRPORT    CLOUDY    63  61  93 SE10      29.94S
DALLAS LOVE    LGT RAIN  64  62  93 E10       29.95F
FTW MEACHAM    CLOUDY    65  62  90 NE9       29.93S
DAL-EXECUTIVE  CLOUDY    63  62  97 E6        29.97R
FTW-ALLIANCE   CLOUDY    62  62 100 SE3       29.95R
FTW-NAS-JRB    CLOUDY    65  63  93 E9        29.98R
FTW-SPINKS     RAIN      64  62  94 E9        29.95F
ARLINGTON      CLOUDY    65  60  84 NE9       29.96R
GRAND PRAIRIE  CLOUDY    64  64 100 E7        29.98S
ADDISON        RAIN     N/A N/A N/A NE7       29.99S
MESQUITE       CLOUDY    64  62  96 N6        29.99S
LANCASTER      LGT RAIN  63  61  94 NE3       29.99R
$$

TXZ091>094-102>105-117-120-121-131>134-180500-
NORTH CENTRAL TEXAS

CITY           SKY/WX    TMP DP  RH WIND       PRES   REMARKS
SHRMAN/DENISON RAIN      64  64 100 NW9       29.99F
GAINESVILLE    CLOUDY    62  60  93 NE8       29.98S
BOWIE          CLOUDY    61  59  93 SE3       29.95R
BRIDGEPORT     CLOUDY    61  61 100 E5        29.96S
DECATUR        CLOUDY    61  61  99 E8        29.96R
DENTON         LGT RAIN  63  60  90 NE8       29.95R
MCKINNEY       TSTM      64  62  93 NW12      29.98S FOG
GREENVILLE     CLOUDY    70  63  78 W6        29.97R
ROCKWALL       TSTM      63  63  99 N13G20    29.99R
TERRELL        TSTM      65  63  93 W9G17     30.00R VSB 1
WAXAHACHIE     CLOUDY    63  63 100 E5        29.98R
CLEBURNE       CLOUDY    64  64 100 NE17G24   29.90F
GRANBURY         N/A     64  62  94 CALM      29.98R
$$

TXZ083>090-098>101-113>116-127>130-139>142-154-155-180500-
WESTERN NORTH TEXAS

CITY           SKY/WX    TMP DP  RH WIND       PRES   REMARKS
WICHITA FALLS  CLOUDY    59  57  93 E5        29.94F
WF-KICKAPOO    CLOUDY    61  58  91 CALM      29.95F
VERNON         MOCLDY    60  55  85 CALM      29.96R
ABILENE        CLOUDY    62  58  86 E5        29.95S
ABILENE-DYESS  CLOUDY    60  58  90 CALM      29.94S
BRECKENRIDGE   PTCLDY    60  59  95 NE3       29.95S
GRAHAM         CLOUDY    58  58 100 CALM      29.94S
MINERAL WELLS  CLOUDY    61  60  97 CALM      29.93S
STEPHENVILLE   CLOUDY    61  59  92 CALM      29.96F
COMANCHE       CLOUDY    63  63 100 CALM      29.95S
BROWNWOOD      CLEAR     59  59 100 CALM      29.95S
COLEMAN        PTCLDY    60  59  96 E3        29.95F
BRADY          CLEAR     59  57  94 CALM      29.95F
$$

TXZ143>147-156>162-174-175-180500-
CENTRAL TEXAS

CITY           SKY/WX    TMP DP  RH WIND       PRES   REMARKS
WACO           CLOUDY    68  66  93 E8        29.90F
WACO-TSTC      PTCLDY    68  66  94 E5        29.89F
WACO-MCGREGOR  CLOUDY    66  61  82 E9        29.91S THUNDER
HILLSBORO      CLOUDY    65  63  90 E10G17    29.95S
CORSICANA      LGT RAIN  67  64  90 S5        29.96F
MEXIA          LGT RAIN  67  66  97 E5        29.96S
HEARNE         RAIN      67  66  97 W5        29.96F
CAMERON        LGT RAIN  64  63  94 NE5G23    29.94F
TEMPLE         CLOUDY    64  57  77 E16G24    29.88R
KILLEEN        MOCLDY    64  63  94 NW5       29.94R
KILLEEN-SKYLRK CLOUDY    64  59  82 CALM      29.90R
FORT HOOD      CLOUDY    64  63  94 VRB1      29.94R
GATESVILLE     CLOUDY    68  66  94 CALM      29.95R
HAMILTON       MOCLDY    65  65 100 CALM      29.95R
$$

TXZ095>097-106>112-122>126-135>138-148>153-164>167-180500-
EAST TEXAS

CITY           SKY/WX    TMP DP  RH WIND       PRES   REMARKS
PARIS          CLOUDY    68  61  77 MISG      29.96F
SULPHUR SPRNGS   N/A     70  64  83 SE5       29.97F
MOUNT PLEASANT CLOUDY    68  65  92 CALM      29.96F
GILMER         CLOUDY    67  64  90 CALM      29.95F
TYLER          CLOUDY    72  67  84 CALM      29.94F
LONGVIEW       CLOUDY    70  66  87 SE6       29.94S
MARSHALL       CLOUDY    70  67  91 CALM      29.97S
ATHENS         CLOUDY    66  66 100 W3        29.95R
PALESTINE      LGT RAIN  68  66  94 NW5       29.95R
JACKSONVILLE   LGT RAIN  68  66  93 SE3       29.95F
HENDERSON      CLOUDY    69  68  97 E3        29.95F
NACOGDOCHES    CLOUDY    68  66  94 CALM      29.95F
$$

SUPPLEMENTAL OBSERVATIONS (CENTRAL)

CITY           SKY/WX    TMP DP  RH WIND       PRES   REMARKS
LAKE TEXOMA      N/A     63  59  88 NW15        N/A
PAT MAYSE LAKE   N/A     72  64  78 E7          N/A
GREENVILLE       N/A     70  63  78 SW5         N/A
CEDAR HILL       N/A    N/A N/A N/A NE5         N/A
ATHENS           N/A     70  66  88 W2          N/A
LAKE LIMESTONE   N/A     70  68  94 CALM        N/A
MCGREGOR         N/A     66  63  88 E8G17       N/A
$$

SUPPLEMENTAL OBSERVATIONS (WEST)

CITY           SKY/WX    TMP DP  RH WIND       PRES   REMARKS
MILLERS CREEK    N/A     61  57  88 SW3         N/A
LBJ GRASSLAND    N/A     63  59  88 E7          N/A
COMANCHE         N/A     63  59  88 SE3         N/A
HAMBY            N/A     57  54  88 E2          N/A
IVIE RESERVOIR   N/A     61  55  82 SE1         N/A
COLORADO BEND    N/A     59  55  88 NW1         N/A
$$

SUPPLEMENTAL OBSERVATIONS (EAST)

CITY           SKY/WX    TMP DP  RH WIND       PRES   REMARKS
CLARKSVILLE      N/A     70  66  88 SE1         N/A
TEXARKANA        N/A     66  63  88 CALM        N/A
LINDEN           N/A     66  64  94 CALM        N/A
CADDO LAKE       N/A     66  64  94 CALM        N/A
GILMER           N/A     66  61  82 CALM        N/A
HENDERSON        N/A     70  64  83 E5          N/A
LUFKIN           N/A     70  66  88 MISG        N/A
N SABINE NF      N/A     68  66  94 MISG        N/A
S SABINE NF      N/A     68  66  94 CALM        N/A
$$

SUPPLEMENTAL OBSERVATIONS ARE A COLLECTION OF AUTOMATED INSTRUMENTS
THAT ARE MAINTAINED BY A VARIETY OF FEDERAL AND STATE AGENCIES.
CERTAIN ELEMENTS...SUCH AS HUMIDITY VALUES AND SUSTAINED WIND
SPEEDS...MAY BE APPROXIMATED.



USA.gov is the U.S. government's official web portal to all federal, state and local government web resources and services.